Weather History for Melbourne Airport, VC

Change the Weather History Date:

Friday, September 6, 2013

  Actual Average Record
Temperature  
Mean Temperature 53 °F -  
Max Temperature 57 °F 61 °F 66 °F (2005)
Min Temperature 49 °F 43 °F 39 °F (1997)
Degree Days  
Heating Degree Days 12    
Growing Degree Days 3 (Base 50)    
Moisture  
Dew Point 48 °F    
Average Humidity 80    
Maximum Humidity 100    
Minimum Humidity 50    
Precipitation  
Precipitation 0.00 in 0.06 in - ()
Sea Level Pressure  
Sea Level Pressure 30.28 in    
Wind  
Wind Speed 5 mph ()    
Max Wind Speed 15 mph    
Max Gust Speed -    
Visibility 9.4 miles    
Events Rain    
Averages and records for this station are not official NWS values.
T = Trace of Precipitation, MM = Missing Value Source: Averaged Metar Reports

Daily Weather History Graph

Daily Weather History Graph

Search for Another Location

Airport:

Trip Planner

Search our weather history database for the weather conditions in past years. The results will help you decide how hot, cold, wet, or windy it might be!

Date:

Astronomy

Sep. 06, 2013 Rise Set
Actual Time 6:35 AM EST 6:03 PM EST
Civil Twilight 6:08 AM EST 6:29 PM EST
Nautical Twilight 5:38 AM EST 7:00 PM EST
Astronomical Twilight 5:08 AM EST 7:30 PM EST
Moon 6:33 AM EST (9/6) 6:54 PM EST (9/6)
Length of Visible Light 12h 20m
Length of Day
11h 28m
New Moon, 0% of the Moon is Illuminated
Sep 6
New Moon
Sep 13
First Quarter
Sep 19
Full
Sep 27
Last Quarter
Oct 5
New

Hourly Weather History & Observations

Time (EST) Temp. Dew Point Humidity Pressure Visibility Wind Dir Wind Speed Gust Speed Precip Events Conditions
12:00 AM 54 °F 52 °F 91% 30.34 in 19 mi West 4.6 mph - -   Partly Cloudy
12:00 AM 53.6 °F 51.8 °F 94% 30.33 in 6.2 mi West 4.6 mph - N/A   Mostly Cloudy
12:30 AM 53.6 °F 51.8 °F 94% 30.33 in 6.2 mi SW 5.8 mph - N/A   Mostly Cloudy
1:00 AM 52 °F 51 °F 95% 30.34 in - West 4.6 mph - -  
1:00 AM 51.8 °F 51.8 °F 100% 30.33 in - West 4.6 mph - N/A   Clear
1:30 AM 51.8 °F 50.0 °F 94% 30.33 in - West 5.8 mph - N/A   Clear
2:00 AM 52 °F 50 °F 90% 30.32 in - Calm Calm - -  
2:00 AM 51.8 °F 50.0 °F 94% 30.30 in - Calm Calm - N/A   Clear
2:30 AM 51.8 °F 50.0 °F 94% 30.30 in - WNW 5.8 mph - N/A   Clear
3:00 AM 51 °F 50 °F 95% 30.31 in 19 mi North 4.6 mph - -   Partly Cloudy
3:00 AM 50.0 °F 50.0 °F 100% 30.30 in - North 4.6 mph - N/A   Clear
3:30 AM 51.8 °F 50.0 °F 94% 30.30 in - North 8.1 mph - N/A   Clear
4:00 AM 51 °F 50 °F 95% 30.30 in - North 2.3 mph - -  
4:00 AM 51.8 °F 50.0 °F 94% 30.27 in - North 2.3 mph - N/A   Clear
4:30 AM 51.8 °F 50.0 °F 94% 30.27 in - North 1.2 mph - N/A   Clear
5:00 AM 50 °F 49 °F 95% 30.31 in - NW 3.5 mph - -  
5:00 AM 50.0 °F 50.0 °F 100% 30.30 in - NW 3.5 mph - N/A   Clear
5:30 AM 50.0 °F 48.2 °F 94% 30.30 in - North 2.3 mph - N/A   Clear
6:00 AM 50 °F 50 °F 98% 30.32 in 19 mi North 5.8 mph - -   Partly Cloudy
6:00 AM 50.0 °F 50.0 °F 100% 30.30 in - North 5.8 mph - N/A   Clear
6:30 AM 50.0 °F 50.0 °F 100% 30.30 in - North 5.8 mph - N/A   Clear
7:00 AM 51 °F 49 °F 92% 30.33 in - North 5.8 mph - -  
7:00 AM 51.8 °F 50.0 °F 94% 30.33 in - North 5.8 mph - N/A   Clear
7:30 AM 51.8 °F 50.0 °F 94% 30.33 in - North 5.8 mph - N/A   Clear
8:00 AM 52 °F 50 °F 92% 30.34 in - North 9.2 mph - -  
8:00 AM 51.8 °F 50.0 °F 94% 30.33 in - North 9.2 mph - N/A   Clear
8:30 AM 53.6 °F 50.0 °F 88% 30.33 in - North 6.9 mph - N/A   Clear
9:00 AM 54 °F 51 °F 85% 30.34 in 9 mi North 4.6 mph - -   Overcast
9:00 AM 53.6 °F 50.0 °F 88% 30.33 in - North 4.6 mph - N/A   Clear
9:30 AM 55.4 °F 50.0 °F 82% 30.33 in 6.2 mi NNW 4.6 mph - N/A   Overcast
10:00 AM 55 °F 51 °F 82% 30.33 in - ENE 1.2 mph - -  
10:00 AM 55.4 °F 51.8 °F 88% 30.33 in 6.2 mi ENE 1.2 mph - N/A   Overcast
10:30 AM 55.4 °F 51.8 °F 88% 30.30 in 6.2 mi WNW 1.2 mph - N/A   Overcast
11:00 AM 56 °F 50 °F 75% 30.32 in - NNW 2.3 mph - -  
11:00 AM 55.4 °F 50.0 °F 82% 30.30 in 6.2 mi NNW 2.3 mph - N/A   Overcast
11:30 AM 55.4 °F 46.4 °F 72% 30.30 in 6.2 mi West 2.3 mph - N/A   Overcast
12:00 PM 56 °F 47 °F 63% 30.30 in 19 mi West 3.5 mph - -   Overcast
12:00 PM 57.2 °F 46.4 °F 67% 30.27 in 6.2 mi West 3.5 mph - N/A   Overcast
12:30 PM 57.2 °F 41.0 °F 55% 30.27 in 6.2 mi WNW 5.8 mph - N/A   Mostly Cloudy
1:00 PM 57.2 °F 42.8 °F 59% 30.27 in 6.2 mi WNW 5.8 mph - N/A   Mostly Cloudy
1:30 PM 57.2 °F 41.0 °F 55% 30.27 in 6.2 mi NNW 4.6 mph - N/A   Mostly Cloudy
2:00 PM 57 °F 43 °F 50% 30.29 in - West 3.5 mph - -  
2:00 PM 57.2 °F 42.8 °F 59% 30.27 in 6.2 mi West 3.5 mph - N/A   Mostly Cloudy
2:30 PM 57.2 °F 42.8 °F 59% 30.27 in 6.2 mi NNW 3.5 mph - N/A   Mostly Cloudy
3:00 PM 57 °F 43 °F 50% 30.28 in 19 mi North 5.8 mph - -   Scattered Clouds
3:00 PM 57.2 °F 42.8 °F 59% 30.27 in 6.2 mi North 5.8 mph - N/A   Mostly Cloudy
3:30 PM 57.2 °F 42.8 °F 59% 30.24 in 6.2 mi North 10.4 mph - N/A   Mostly Cloudy
4:00 PM 55.4 °F 44.6 °F 67% 30.24 in 6.2 mi North 15.0 mph - N/A Rain Light Rain
4:30 PM 55.4 °F 44.6 °F 67% 30.24 in 6.2 mi West 6.9 mph - N/A   Unknown
5:00 PM 55 °F 45 °F 61% 30.25 in - North 12.7 mph - -  
5:00 PM 55.4 °F 44.6 °F 67% 30.24 in 6.2 mi North 12.7 mph - N/A   Mostly Cloudy
5:30 PM 53.6 °F 48.2 °F 82% 30.24 in 6.2 mi North 8.1 mph - N/A   Mostly Cloudy
6:00 PM 54 °F 46 °F 68% 30.26 in 16 mi North 8.1 mph - -   Scattered Clouds
6:00 PM 53.6 °F 46.4 °F 77% 30.24 in 6.2 mi North 8.1 mph - N/A   Mostly Cloudy
6:30 PM 53.6 °F 48.2 °F 82% 30.24 in - North 10.4 mph - N/A   Clear
7:00 PM 54 °F 46 °F 66% 30.26 in - North 9.2 mph - -  
7:00 PM 53.6 °F 46.4 °F 77% 30.24 in - North 9.2 mph - N/A   Clear
7:30 PM 53.6 °F 44.6 °F 72% 30.24 in - North 10.4 mph - N/A   Clear
8:00 PM 54 °F 45 °F 63% 30.26 in - North 10.4 mph - -  
8:00 PM 53.6 °F 44.6 °F 72% 30.24 in - North 10.4 mph - N/A   Clear
8:30 PM 53.6 °F 46.4 °F 77% 30.24 in - North 11.5 mph - N/A   Clear
9:00 PM 53 °F 47 °F 72% 30.26 in 19 mi North 10.4 mph - -   Partly Cloudy
9:00 PM 53.6 °F 46.4 °F 77% 30.24 in - North 10.4 mph - N/A   Clear
9:30 PM 53.6 °F 46.4 °F 77% 30.24 in - North 13.8 mph - N/A   Clear
10:00 PM 53 °F 46 °F 69% 30.24 in - North 11.5 mph - -  
10:00 PM 53.6 °F 46.4 °F 77% 30.21 in - North 11.5 mph - N/A   Clear
10:30 PM 53.6 °F 44.6 °F 72% 30.21 in - North 11.5 mph - N/A   Clear
11:00 PM 54 °F 44 °F 59% 30.24 in - North 10.4 mph - -  
11:00 PM 53.6 °F 44.6 °F 72% 30.21 in - North 10.4 mph - N/A   Clear
11:30 PM 53.6 °F 44.6 °F 72% 30.21 in - North 9.2 mph - N/A   Clear